Location: Crescent
(42.8242°N, 73.7329°W)
Time: 23:58:16
(UTC+00:00)

Tiros 1 - Pass Details

Date: 21 February 2026
Orbit: 618 x 649 km, 48.4° (Epoch: 9 March)

Event Time Altitude Azimuth Distance (km) Brightness Sun altitude
Rises 19:23:31 0° 284° (WNW) 2,889 10.8 28.5°
Reaches altitude 10° 19:26:49 10° 259° (W) 1,977 10.5 28.2°
Maximum altitude 19:29:10 14° 228° (SW) 1,721 11.3 27.9°
Drops below altitude 10° 19:31:31 10° 196° (SSW) 1,970 10.9 27.6°
Sets 19:34:48 0° 171° (S) 2,872 11.0 27.2°
